LOT74T EPKK-EDDH

Flight info

Callsign LOT74T
Flight time 1h 13m
Altitude 34000
Route LUMVE L619 NUDRO/N0447F280 L619 ADVAB L980 SUBIX DCT VIBIS L619 BUMIL/N0420F240 M748 RARUP RARUP6A
Aircraft B738/M-SDE2E3FGHIRWXY/LB1

Departure

Time 2026-05-05 12:25
Airport Kraków John Paul II International Airport (EPKK)

Arrival

Time 2026-05-05 13:39
Airport Hamburg Helmut Schmidt Airport (EDDH)
Time Latitude Longitude Altitude Speed Heading
2026-05-05 12:00 50.07295 19.79882 803 ft 0 kts 167°
2026-05-05 12:16 50.07302 19.79880 803 ft 2 kts 167°
2026-05-05 12:16 50.07317 19.79874 803 ft 2 kts 167°
2026-05-05 12:16 50.07331 19.79869 803 ft 2 kts 167°
2026-05-05 12:16 50.07344 19.79864 803 ft 1 kts 167°
2026-05-05 12:17 50.07354 19.79860 803 ft 2 kts 153°
2026-05-05 12:17 50.07366 19.79845 803 ft 2 kts 125°
2026-05-05 12:17 50.07372 19.79824 803 ft 2 kts 98°
2026-05-05 12:17 50.07372 19.79808 803 ft 0 kts 81°
2026-05-05 12:18 50.07370 19.79797 803 ft 0 kts 78°
2026-05-05 12:21 50.07372 19.79807 803 ft 5 kts 78°
2026-05-05 12:22 50.07389 19.79934 803 ft 17 kts 79°
2026-05-05 12:22 50.07412 19.80108 803 ft 16 kts 78°
2026-05-05 12:22 50.07436 19.80274 803 ft 14 kts 77°
2026-05-05 12:22 50.07488 19.80380 803 ft 12 kts 17°
2026-05-05 12:23 50.07581 19.80418 803 ft 14 kts 359°
2026-05-05 12:23 50.07696 19.80382 803 ft 17 kts 349°
2026-05-05 12:23 50.07809 19.80342 803 ft 15 kts 348°
2026-05-05 12:23 50.07897 19.80313 803 ft 11 kts 348°
2026-05-05 12:24 50.07989 19.80282 803 ft 15 kts 346°
2026-05-05 12:24 50.08009 19.80187 803 ft 9 kts 256°
2026-05-05 12:24 50.07987 19.80022 803 ft 39 kts 258°
2026-05-05 12:24 50.07875 19.79216 803 ft 110 kts 258°
2026-05-05 12:25 50.07669 19.77744 805 ft 168 kts 257°
2026-05-05 12:25 50.07421 19.75856 1187 ft 187 kts 254°
2026-05-05 12:25 50.07145 19.73859 1975 ft 189 kts 254°
2026-05-05 12:25 50.06853 19.71944 2806 ft 186 kts 252°
2026-05-05 12:26 50.06552 19.69907 3170 ft 206 kts 253°
2026-05-05 12:26 50.06240 19.67658 3653 ft 221 kts 254°
2026-05-05 12:26 50.05923 19.65259 4192 ft 234 kts 254°
2026-05-05 12:26 50.05579 19.62694 4690 ft 249 kts 254°
2026-05-05 12:27 50.05201 19.59998 5251 ft 261 kts 254°
2026-05-05 12:27 50.04817 19.57284 6010 ft 263 kts 254°
2026-05-05 12:27 50.04423 19.54502 6781 ft 266 kts 254°
2026-05-05 12:27 50.04027 19.51710 7588 ft 267 kts 254°
2026-05-05 12:28 50.03624 19.48885 8382 ft 269 kts 255°
2026-05-05 12:28 50.03225 19.46080 9165 ft 269 kts 255°
2026-05-05 12:28 50.02856 19.43266 9899 ft 272 kts 259°
2026-05-05 12:28 50.02845 19.40255 10385 ft 289 kts 278°
2026-05-05 12:29 50.03502 19.37209 10749 ft 308 kts 290°
2026-05-05 12:29 50.04430 19.34099 11119 ft 324 kts 291°
2026-05-05 12:29 50.05410 19.30908 11476 ft 339 kts 291°
2026-05-05 12:29 50.06423 19.27484 11817 ft 354 kts 290°
2026-05-05 12:30 50.07431 19.23956 12144 ft 368 kts 290°
2026-05-05 12:30 50.08466 19.20263 12699 ft 375 kts 290°
2026-05-05 12:30 50.09494 19.16558 13340 ft 380 kts 290°
2026-05-05 12:30 50.10551 19.12728 13993 ft 384 kts 290°
2026-05-05 12:31 50.11594 19.08937 14644 ft 388 kts 290°
2026-05-05 12:31 50.12655 19.05074 15331 ft 390 kts 290°
2026-05-05 12:31 50.13723 19.01177 15960 ft 394 kts 290°
2026-05-05 12:31 50.14797 18.97256 16611 ft 397 kts 290°
2026-05-05 12:32 50.15879 18.93295 17224 ft 401 kts 290°
2026-05-05 12:32 50.16976 18.89272 17848 ft 404 kts 290°
2026-05-05 12:32 50.18073 18.85246 18459 ft 407 kts 290°
2026-05-05 12:32 50.19181 18.81174 19029 ft 411 kts 290°
2026-05-05 12:33 50.20366 18.77121 19605 ft 415 kts 294°
2026-05-05 12:33 50.21820 18.73211 20177 ft 420 kts 302°
2026-05-05 12:33 50.23663 18.69665 20727 ft 426 kts 311°
2026-05-05 12:33 50.25829 18.66550 21295 ft 430 kts 319°
2026-05-05 12:34 50.28255 18.63756 21839 ft 433 kts 324°
2026-05-05 12:34 50.30839 18.61349 22378 ft 437 kts 330°
2026-05-05 12:34 50.33581 18.59266 22889 ft 441 kts 334°
2026-05-05 12:34 50.36400 18.57366 23398 ft 443 kts 336°
2026-05-05 12:35 50.39225 18.55558 23859 ft 447 kts 336°
2026-05-05 12:35 50.42144 18.53714 24323 ft 451 kts 336°
2026-05-05 12:35 50.45046 18.51872 24792 ft 454 kts 336°
2026-05-05 12:35 50.47945 18.50013 25228 ft 457 kts 336°
2026-05-05 12:36 50.50897 18.48092 25660 ft 460 kts 336°
2026-05-05 12:36 50.53835 18.46098 26076 ft 462 kts 334°
2026-05-05 12:36 50.56701 18.43823 26490 ft 464 kts 328°
2026-05-05 12:36 50.59430 18.41116 26912 ft 465 kts 324°
2026-05-05 12:37 50.62025 18.38157 27305 ft 467 kts 321°
2026-05-05 12:37 50.64588 18.35005 27750 ft 467 kts 320°
2026-05-05 12:37 50.67083 18.31818 28335 ft 465 kts 318°
2026-05-05 12:37 50.69581 18.28539 28919 ft 462 kts 316°
2026-05-05 12:38 50.71870 18.25125 29442 ft 459 kts 312°
2026-05-05 12:38 50.74046 18.21426 29988 ft 456 kts 309°
2026-05-05 12:38 50.76091 18.17631 30507 ft 454 kts 307°
2026-05-05 12:38 50.78075 18.13732 30955 ft 452 kts 306°
2026-05-05 12:39 50.79988 18.09849 31388 ft 451 kts 305°
2026-05-05 12:39 50.81899 18.05906 31823 ft 450 kts 304°
2026-05-05 12:39 50.83794 18.01961 32299 ft 448 kts 304°
2026-05-05 12:39 50.85658 17.98062 32783 ft 445 kts 304°
2026-05-05 12:40 50.87548 17.94097 33189 ft 444 kts 304°
2026-05-05 12:40 50.89397 17.90208 33579 ft 443 kts 304°
2026-05-05 12:40 50.91235 17.86338 33807 ft 444 kts 304°
2026-05-05 12:40 50.93073 17.82464 33797 ft 444 kts 304°
2026-05-05 12:41 50.96770 17.74661 33801 ft 441 kts 304°
2026-05-05 12:41 51.00435 17.66906 33800 ft 442 kts 304°
2026-05-05 12:42 51.04110 17.59108 33801 ft 441 kts 304°
2026-05-05 12:42 51.07781 17.51300 33798 ft 440 kts 304°
2026-05-05 12:43 51.11418 17.43540 33800 ft 441 kts 304°
2026-05-05 12:43 51.15258 17.35952 33796 ft 442 kts 312°
2026-05-05 12:44 51.20313 17.30289 33803 ft 450 kts 331°
2026-05-05 12:44 51.26114 17.26403 33801 ft 452 kts 335°
2026-05-05 12:45 51.32014 17.22898 33802 ft 451 kts 336°
2026-05-05 12:45 51.37906 17.19422 33801 ft 451 kts 336°
2026-05-05 12:46 51.43775 17.15905 33800 ft 450 kts 335°
2026-05-05 12:46 51.49620 17.12351 33801 ft 450 kts 335°
2026-05-05 12:47 51.55482 17.08754 33804 ft 450 kts 335°
2026-05-05 12:47 51.61295 17.05168 33803 ft 448 kts 335°
2026-05-05 12:48 51.67106 17.01568 33803 ft 447 kts 335°
2026-05-05 12:48 51.72915 16.97958 33806 ft 447 kts 335°
2026-05-05 12:49 51.78686 16.94361 33806 ft 448 kts 335°
2026-05-05 12:49 51.84487 16.90737 33807 ft 448 kts 335°
2026-05-05 12:50 51.90294 16.87100 33804 ft 447 kts 335°
2026-05-05 12:50 51.96097 16.83454 33809 ft 447 kts 334°
2026-05-05 12:51 52.01907 16.79792 33815 ft 448 kts 334°
2026-05-05 12:51 52.07343 16.75216 33816 ft 438 kts 319°
2026-05-05 12:52 52.11530 16.68257 33822 ft 429 kts 303°
2026-05-05 12:52 52.14470 16.59907 33822 ft 423 kts 288°
2026-05-05 12:53 52.16002 16.50772 33824 ft 420 kts 280°
2026-05-05 12:53 52.17102 16.41593 33823 ft 420 kts 279°
2026-05-05 12:54 52.18721 16.27548 33824 ft 419 kts 278°
2026-05-05 12:55 52.19823 16.18258 33831 ft 419 kts 278°
2026-05-05 12:55 52.20941 16.08931 33827 ft 419 kts 278°
2026-05-05 12:56 52.22058 15.99617 33824 ft 419 kts 278°
2026-05-05 12:56 52.23166 15.90330 33826 ft 418 kts 278°
2026-05-05 12:57 52.24264 15.81041 33835 ft 418 kts 278°
2026-05-05 12:57 52.25349 15.71762 33831 ft 418 kts 278°
2026-05-05 12:58 52.26427 15.62484 33839 ft 417 kts 278°
2026-05-05 12:58 52.27501 15.53181 33838 ft 417 kts 278°
2026-05-05 12:59 52.28566 15.43908 33834 ft 417 kts 278°
2026-05-05 12:59 52.29624 15.34611 33830 ft 416 kts 277°
2026-05-05 13:00 52.31177 15.20840 33836 ft 415 kts 278°
2026-05-05 13:01 52.33244 15.02248 33837 ft 415 kts 277°
2026-05-05 13:01 52.34264 14.92983 33835 ft 415 kts 277°
2026-05-05 13:02 52.35275 14.83731 33833 ft 414 kts 277°
2026-05-05 13:02 52.36284 14.74422 33834 ft 414 kts 277°
2026-05-05 13:03 52.37292 14.65188 33834 ft 414 kts 278°
2026-05-05 13:03 52.38744 14.56113 33836 ft 415 kts 287°
2026-05-05 13:04 52.40956 14.47252 33837 ft 419 kts 291°
2026-05-05 13:04 52.43389 14.38577 33837 ft 419 kts 291°
2026-05-05 13:05 52.45824 14.29980 33837 ft 417 kts 290°
2026-05-05 13:05 52.48231 14.21347 33845 ft 417 kts 290°
2026-05-05 13:06 52.50614 14.12680 33850 ft 416 kts 290°
2026-05-05 13:06 52.52981 14.04008 33855 ft 416 kts 290°
2026-05-05 13:07 52.55329 13.95358 33854 ft 415 kts 290°
2026-05-05 13:07 52.57623 13.86868 33853 ft 415 kts 290°
2026-05-05 13:08 52.59956 13.78203 33858 ft 414 kts 290°
2026-05-05 13:08 52.62286 13.69513 33854 ft 414 kts 290°
2026-05-05 13:09 52.64600 13.60851 33856 ft 415 kts 290°
2026-05-05 13:09 52.66916 13.52150 33855 ft 414 kts 290°
2026-05-05 13:10 52.69220 13.43456 33858 ft 414 kts 290°
2026-05-05 13:10 52.71511 13.34780 33853 ft 414 kts 289°
2026-05-05 13:11 52.73806 13.26058 33850 ft 412 kts 289°
2026-05-05 13:11 52.76070 13.17422 33849 ft 413 kts 289°
2026-05-05 13:12 52.78348 13.08695 33849 ft 414 kts 289°
2026-05-05 13:12 52.80622 12.99952 33851 ft 413 kts 289°
2026-05-05 13:13 52.82891 12.91197 33856 ft 414 kts 288°
2026-05-05 13:13 52.85126 12.82539 33860 ft 411 kts 289°
2026-05-05 13:14 52.87370 12.73810 33863 ft 413 kts 289°
2026-05-05 13:14 52.89609 12.65069 33863 ft 413 kts 289°
2026-05-05 13:15 52.91832 12.56356 33866 ft 412 kts 288°
2026-05-05 13:15 52.94074 12.47534 33869 ft 413 kts 289°
2026-05-05 13:16 52.96201 12.38755 33872 ft 410 kts 285°
2026-05-05 13:16 52.97519 12.29677 33876 ft 405 kts 275°
2026-05-05 13:17 52.97998 12.20530 33876 ft 402 kts 270°
2026-05-05 13:17 52.98249 12.11262 33876 ft 402 kts 270°
2026-05-05 13:18 52.98475 12.01971 33877 ft 402 kts 270°
2026-05-05 13:18 52.98590 11.97378 33609 ft 398 kts 270°
2026-05-05 13:18 52.98706 11.92855 33182 ft 393 kts 270°
2026-05-05 13:19 52.98824 11.88341 32607 ft 393 kts 270°
2026-05-05 13:19 52.98998 11.83806 31925 ft 394 kts 272°
2026-05-05 13:19 52.99369 11.79324 31179 ft 397 kts 277°
2026-05-05 13:19 52.99965 11.74835 30384 ft 401 kts 281°
2026-05-05 13:20 53.00677 11.70379 29562 ft 403 kts 282°
2026-05-05 13:20 53.01445 11.65896 28713 ft 405 kts 283°
2026-05-05 13:20 53.02231 11.61390 27880 ft 407 kts 283°
2026-05-05 13:20 53.03094 11.56993 27453 ft 410 kts 287°
2026-05-05 13:21 53.04213 11.52557 26930 ft 420 kts 291°
2026-05-05 13:21 53.05501 11.48192 26356 ft 419 kts 294°
2026-05-05 13:21 53.06844 11.43992 25805 ft 415 kts 295°
2026-05-05 13:21 53.08231 11.39804 25255 ft 410 kts 296°
2026-05-05 13:22 53.09598 11.35725 24708 ft 405 kts 296°
2026-05-05 13:22 53.11144 11.31801 24144 ft 404 kts 303°
2026-05-05 13:22 53.12957 11.28308 23604 ft 404 kts 310°
2026-05-05 13:22 53.15004 11.25134 23071 ft 405 kts 316°
2026-05-05 13:23 53.17246 11.22221 22526 ft 411 kts 319°
2026-05-05 13:23 53.19337 11.19119 22394 ft 398 kts 306°
2026-05-05 13:23 53.20781 11.15255 22287 ft 397 kts 291°
2026-05-05 13:23 53.21690 11.10951 22036 ft 394 kts 283°
2026-05-05 13:24 53.22363 11.06538 21632 ft 388 kts 281°
2026-05-05 13:24 53.22975 11.02192 20945 ft 388 kts 281°
2026-05-05 13:24 53.23621 10.97832 20308 ft 387 kts 283°
2026-05-05 13:24 53.24313 10.93557 19707 ft 385 kts 284°
2026-05-05 13:25 53.25055 10.89301 19130 ft 382 kts 285°
2026-05-05 13:25 53.25833 10.85065 18553 ft 380 kts 286°
2026-05-05 13:25 53.26627 10.80868 17958 ft 378 kts 286°
2026-05-05 13:25 53.27420 10.76750 17417 ft 374 kts 287°
2026-05-05 13:26 53.28223 10.72617 16790 ft 374 kts 287°
2026-05-05 13:26 53.29019 10.68552 16254 ft 370 kts 287°
2026-05-05 13:26 53.29823 10.64449 15726 ft 366 kts 287°
2026-05-05 13:26 53.30602 10.60449 15145 ft 364 kts 287°
2026-05-05 13:27 53.31378 10.56452 14588 ft 361 kts 287°
2026-05-05 13:27 53.32142 10.52507 13887 ft 353 kts 287°
2026-05-05 13:27 53.32873 10.48731 13367 ft 339 kts 287°
2026-05-05 13:27 53.33580 10.45068 12869 ft 326 kts 287°
2026-05-05 13:28 53.34259 10.41540 12436 ft 312 kts 287°
2026-05-05 13:28 53.34904 10.38174 12037 ft 299 kts 287°
2026-05-05 13:28 53.35517 10.34965 11682 ft 287 kts 286°
2026-05-05 13:28 53.36120 10.31808 11318 ft 277 kts 285°
2026-05-05 13:29 53.36694 10.28750 10828 ft 272 kts 285°
2026-05-05 13:29 53.37254 10.25763 10270 ft 270 kts 285°
2026-05-05 13:29 53.37814 10.22799 9737 ft 267 kts 286°
2026-05-05 13:29 53.38369 10.19858 9175 ft 266 kts 286°
2026-05-05 13:30 53.38922 10.16936 8597 ft 265 kts 286°
2026-05-05 13:30 53.39475 10.14017 8068 ft 262 kts 287°
2026-05-05 13:30 53.40016 10.11155 7516 ft 261 kts 287°
2026-05-05 13:30 53.40561 10.08269 7026 ft 259 kts 287°
2026-05-05 13:31 53.41100 10.05405 6606 ft 255 kts 287°
2026-05-05 13:31 53.41622 10.02631 6318 ft 248 kts 287°
2026-05-05 13:31 53.42143 9.99861 6012 ft 253 kts 287°
2026-05-05 13:31 53.42679 9.97011 5685 ft 258 kts 288°
2026-05-05 13:32 53.43205 9.94196 5517 ft 249 kts 288°
2026-05-05 13:32 53.43716 9.91459 5299 ft 250 kts 288°
2026-05-05 13:32 53.44252 9.88617 4995 ft 256 kts 288°
2026-05-05 13:32 53.44777 9.85821 4799 ft 250 kts 289°
2026-05-05 13:33 53.45295 9.83038 4573 ft 244 kts 289°
2026-05-05 13:33 53.45781 9.80411 4388 ft 230 kts 289°
2026-05-05 13:33 53.46240 9.77925 4192 ft 219 kts 289°
2026-05-05 13:33 53.46726 9.75590 3983 ft 208 kts 297°
2026-05-05 13:34 53.47568 9.73689 3743 ft 201 kts 330°
2026-05-05 13:34 53.48864 9.73038 3550 ft 197 kts
2026-05-05 13:34 53.50170 9.73630 3382 ft 194 kts 32°
2026-05-05 13:34 53.51173 9.75084 3207 ft 188 kts 47°
2026-05-05 13:35 53.52023 9.76724 3006 ft 182 kts 49°
2026-05-05 13:35 53.52826 9.78311 2925 ft 178 kts 49°
2026-05-05 13:35 53.53621 9.79897 2684 ft 180 kts 49°
2026-05-05 13:35 53.54422 9.81504 2427 ft 178 kts 50°
2026-05-05 13:36 53.55214 9.83091 2181 ft 174 kts 49°
2026-05-05 13:36 53.55950 9.84568 1946 ft 164 kts 49°
2026-05-05 13:36 53.56680 9.86032 1730 ft 160 kts 50°
2026-05-05 13:36 53.57394 9.87463 1512 ft 162 kts 50°
2026-05-05 13:37 53.58118 9.88924 1286 ft 161 kts 49°
2026-05-05 13:37 53.58842 9.90371 1064 ft 161 kts 49°
2026-05-05 13:37 53.59522 9.91743 853 ft 151 kts 50°
2026-05-05 13:37 53.60207 9.93082 637 ft 149 kts 50°
2026-05-05 13:38 53.60858 9.94406 442 ft 149 kts 51°
2026-05-05 13:38 53.61525 9.95753 248 ft 148 kts 49°
2026-05-05 13:38 53.62170 9.97065 76 ft 142 kts 49°
2026-05-05 13:38 53.62685 9.98112 61 ft 85 kts 50°
2026-05-05 13:39 53.62948 9.98645 61 ft 43 kts 50°
2026-05-05 13:39 53.63080 9.98976 61 ft 26 kts 83°
2026-05-05 13:39 53.63092 9.99139 61 ft 0 kts 93°
2026-05-05 13:39 53.63092 9.99140 61 ft 0 kts 93°
2026-05-05 13:40 53.63088 9.99202 61 ft 12 kts 95°
2026-05-05 13:40 53.63087 9.99348 61 ft 11 kts 78°
2026-05-05 13:40 53.63090 9.99367 61 ft 0 kts 65°
2026-05-05 13:41 53.63093 9.99378 61 ft 6 kts 65°
2026-05-05 13:41 53.63147 9.99517 61 ft 20 kts 52°
2026-05-05 13:41 53.63248 9.99718 61 ft 22 kts 43°
2026-05-05 13:41 53.63353 9.99914 61 ft 25 kts 51°
2026-05-05 13:42 53.63430 10.00099 61 ft 9 kts 96°
2026-05-05 13:42 53.63400 10.00192 61 ft 8 kts 126°
2026-05-05 13:42 53.63341 10.00232 61 ft 9 kts 176°
2026-05-05 13:42 53.63296 10.00249 61 ft 2 kts 127°
2026-05-05 13:43 53.63294 10.00273 61 ft 4 kts 94°
2026-05-05 13:43 53.63292 10.00335 61 ft 2 kts 88°
2026-05-05 13:43 53.63293 10.00349 61 ft 0 kts 87°
2026-05-05 13:43 53.63293 10.00350 61 ft 0 kts 87°